DW7639 Weather Reports


time (UTC)temp
F
wind
direction
speed
knots
gust
knots
rain 1hr
in
rain 24hr
in
rain mn
in
humidity
%
barometer
mb
20260906110017 64 63 0.0 0.9 0.00 0.00 0.00 98 1015.5
20260906105020 64 177 0.9 1.7 0.00 0.00 0.00 98 1015.3
20260906104018 64 218 0.0 0.0 0.00 0.00 0.00 98 1015.3
20260906103018 63 181 0.9 1.7 0.00 0.00 0.00 98 1015.3
20260906102019 63 47 0.0 2.6 0.00 0.00 0.00 98 1015.5
20260906101018 63 266 0.0 0.9 0.00 0.00 0.00 98 1015.4
20260906100018 63 125 0.0 0.9 0.00 0.00 0.00 98 1015.3
20260906095019 63 226 0.0 1.7 0.00 0.00 0.00 98 1015.3
20260906094019 63 155 0.9 3.5 0.00 0.00 0.00 98 1015.3
20260906093019 62 131 0.0 0.9 0.00 0.00 0.00 98 1015.3
20260906092019 62 195 0.0 0.9 0.00 0.00 0.00 98 1015.2
20260906091019 62 182 0.0 0.9 0.00 0.00 0.00 98 1015.2
20260906090020 62 231 0.0 0.0 0.00 0.00 0.00 98 1015.0
20260906085036 62 198 0.0 0.9 0.00 0.00 0.00 97 1015.1
20260906084042 62 195 0.0 0.9 0.00 0.00 0.00 97 1015.1
20260906083040 62 52 0.0 2.6 0.00 0.00 0.00 97 1014.9
20260906082020 62 33 0.0 1.7 0.00 0.00 0.00 97 1014.9
20260906081052 62 282 0.0 0.9 0.00 0.00 0.00 97 1014.7
20260906080020 63 163 0.9 0.9 0.00 0.00 0.00 97 1014.7
20260906075021 63 227 0.0 0.9 0.00 0.00 0.00 97 1014.7
20260906074022 63 191 0.0 0.9 0.00 0.00 0.00 97 1014.8
20260906073022 63 256 0.0 0.9 0.00 0.00 0.00 97 1014.9
20260906072022 63 0.0 0.0 0.00 0.00 0.00 97 1015.0
20260906071022 63 208 0.9 0.9 0.00 0.00 0.00 97 1015.0
20260906070022 63 162 0.0 0.9 0.00 0.00 0.00 97 1015.1
20260906065023 63 0.0 0.0 0.00 0.00 0.00 97 1015.2
20260906064023 63 0.0 0.0 0.00 0.00 0.00 97 1015.4
20260906063022 63 212 0.0 1.7 0.00 0.00 0.00 97 1015.5
20260906062042 63 195 0.0 0.9 0.00 0.00 0.00 97 1015.5
20260906061023 63 212 0.9 1.7 0.00 0.00 0.00 96 1015.3
20260906060035 63 189 0.9 3.5 0.00 0.00 0.00 96 1015.2
20260906055016 63 204 0.0 0.9 0.00 0.00 0.00 96 1015.2
20260906054015 64 214 0.0 2.6 0.00 0.00 0.00 96 1015.2
20260906053015 64 187 0.9 2.6 0.00 0.00 0.00 96 1015.2
20260906052016 64 150 0.0 1.7 0.00 0.00 0.00 96 1015.1
20260906051016 64 201 0.9 2.6 0.00 0.00 0.00 96 1015.2
20260906050017 64 197 0.9 1.7 0.00 0.00 0.00 95 1015.1
20260906045017 64 200 0.0 1.7 0.00 0.00 0.00 95 1014.9
20260906044017 65 359 0.9 1.7 0.00 0.00 0.00 95 1015.0
20260906043016 65 156 0.9 1.7 0.00 0.00 0.00 95 1015.3
20260906042018 65 130 0.9 1.7 0.00 0.00 0.00 95 1015.5
20260906041037 65 3 0.0 1.7 0.00 0.00 0.00 94 1015.4
20260906040017 65 189 0.0 1.7 0.00 0.00 0.00 94 1015.5
20260906035118 65 222 0.0 1.7 0.00 0.00 0.00 94 1015.5
20260906034018 65 171 0.0 0.9 0.00 0.00 0.00 94 1015.5
20260906033018 66 189 0.0 1.7 0.00 0.00 0.00 93 1015.5
20260906032018 66 26 0.0 1.7 0.00 0.00 0.00 92 1015.5
20260906031016 66 14 0.0 2.6 0.00 0.00 0.00 92 1015.6
20260906030019 67 344 0.0 1.7 0.00 0.00 0.00 92 1015.6
20260906025015 67 328 0.9 1.7 0.00 0.00 0.00 91 1015.6
20260906024016 67 293 0.0 1.7 0.00 0.00 0.00 90 1015.6
20260906023016 68 337 0.0 1.7 0.00 0.00 0.00 90 1015.7
20260906022016 68 310 0.0 1.7 0.00 0.00 0.00 89 1015.7
20260906021016 68 245 0.0 1.7 0.00 0.00 0.00 89 1015.7
20260906020016 69 228 0.0 1.7 0.00 0.00 0.00 88 1015.6
20260906015017 69 267 0.0 1.7 0.00 0.00 0.00 87 1015.6
20260906014017 70 275 0.0 1.7 0.00 0.00 0.00 86 1015.4
20260906013018 70 325 0.0 0.9 0.00 0.00 0.00 84 1015.3
20260906012018 71 255 0.0 0.9 0.00 0.00 0.00 83 1015.1
20260906011018 72 164 0.0 1.7 0.00 0.00 0.00 82 1015.0
20260906010058 73 173 0.0 0.9 0.00 0.00 0.00 80 1014.9
20260906005018 74 225 0.0 1.7 0.00 0.00 0.00 78 1014.8
20260906004018 75 239 0.0 0.9 0.00 0.00 0.00 76 1014.8
20260906003038 75 279 0.0 1.7 0.00 0.00 0.00 75 1014.6
20260906002018 76 332 0.0 1.7 0.00 0.00 0.00 73 1014.6
20260906001015 77 290 0.0 1.7 0.00 0.00 0.00 72 1014.5
20260906000016 77 298 0.9 1.7 0.00 0.00 0.00 71 1014.5
20260905235016 77 272 0.9 1.7 0.00 0.00 0.00 70 1014.4
20260905234016 78 338 0.9 1.7 0.00 0.00 0.00 68 1014.4
20260905233036 79 358 0.0 0.9 0.00 0.00 0.00 66 1014.3
20260905232017 79 313 0.9 6.1 0.00 0.00 0.00 64 1014.3
20260905231037 80 355 1.7 3.5 0.00 0.00 0.00 63 1014.4
20260905230017 80 325 0.9 2.6 0.00 0.00 0.00 63 1014.5
20260905225017 80 359 0.9 2.6 0.00 0.00 0.00 62 1014.5
20260905224017 81 327 0.9 4.3 0.00 0.00 0.00 63 1014.5
20260905223017 81 321 0.9 3.5 0.00 0.00 0.00 60 1014.4
20260905222018 82 341 0.9 1.7 0.00 0.00 0.00 61 1014.3
20260905221037 83 318 1.7 3.5 0.00 0.00 0.00 58 1014.1
20260905220017 83 289 1.7 5.2 0.00 0.00 0.00 57 1014.1
20260905215018 83 289 0.9 2.6 0.00 0.00 0.00 55 1013.9
20260905214023 83 331 1.7 5.2 0.00 0.00 0.00 55 1013.8
20260905213020 83 269 1.7 3.5 0.00 0.00 0.00 56 1013.8
20260905212017 83 300 0.9 2.6 0.00 0.00 0.00 59 1013.6
20260905211018 83 301 0.9 2.6 0.00 0.00 0.00 62 1013.7
20260905210016 82 194 0.9 4.3 0.00 0.00 0.00 62 1013.7
20260905205016 82 220 0.0 1.7 0.00 0.00 0.00 65 1013.7
20260905204016 83 240 0.9 2.6 0.00 0.00 0.00 64 1013.7
20260905203016 83 240 0.9 2.6 0.00 0.00 0.00 61 1013.8
20260905202016 83 288 0.9 2.6 0.00 0.00 0.00 60 1013.6
20260905201016 84 178 0.9 7.8 0.00 0.00 0.00 58 1013.7
20260905200017 84 8 0.9 2.6 0.00 0.00 0.00 57 1013.7
20260905195017 84 345 0.9 4.3 0.00 0.00 0.00 56 1013.6
20260905194017 84 305 1.7 5.2 0.00 0.00 0.00 60 1013.7
20260905193018 84 329 1.7 5.2 0.00 0.00 0.00 61 1013.8
20260905192038 84 299 0.9 2.6 0.00 0.00 0.00 64 1014.0
20260905191018 84 345 0.9 1.7 0.00 0.00 0.00 66 1014.2
20260905190018 84 339 0.9 2.6 0.00 0.00 0.00 65 1014.2
20260905185018 84 318 0.9 2.6 0.00 0.00 0.00 64 1014.4
20260905184018 82 251 0.9 4.3 0.00 0.00 0.00 70 1014.6
20260905183015 81 317 0.9 3.5 0.00 0.00 0.00 72 1015.0
20260905182016 80 232 0.9 3.5 0.00 0.00 0.00 72 1015.3
20260905181019 80 337 0.9 1.7 0.00 0.00 0.00 73 1015.4
20260905180016 80 316 0.9 4.3 0.00 0.00 0.00 73 1015.5
20260905175027 79 349 0.0 1.7 0.00 0.00 0.00 74 1015.5
20260905174044 78 246 0.9 1.7 0.00 0.00 0.00 75 1015.5
20260905173043 77 303 0.9 2.6 0.00 0.00 0.00 77 1015.7
20260905172023 77 259 0.9 2.6 0.00 0.00 0.00 78 1015.6
20260905171043 77 149 0.9 1.7 0.00 0.00 0.00 78 1015.5
20260905170023 77 1 0.9 2.6 0.00 0.00 0.00 78 1015.7
20260905165023 77 332 1.7 2.6 0.00 0.00 0.00 77 1016.0
20260905164023 78 143 0.9 2.6 0.00 0.00 0.00 76 1016.1
20260905163024 78 335 0.9 3.5 0.00 0.00 0.00 76 1016.1
20260905162041 79 321 0.9 6.1 0.00 0.00 0.00 75 1016.2
20260905161024 79 345 0.9 1.7 0.00 0.00 0.00 74 1016.3
20260905160024 77 299 0.9 3.5 0.00 0.00 0.00 79 1016.6
20260905155024 74 329 0.9 1.7 0.00 0.00 0.00 85 1016.8
20260905154024 73 51 0.9 5.2 0.00 0.00 0.00 86 1016.9
20260905153045 74 65 0.0 0.9 0.00 0.00 0.00 89 1017.2
20260905152025 74 50 0.0 0.9 0.00 0.00 0.00 89 1017.3
20260905151025 74 173 0.9 1.7 0.00 0.00 0.00 88 1017.2
20260905150025 74 134 0.0 1.7 0.00 0.00 0.00 90 1017.3
20260905145025 75 110 0.0 0.9 0.00 0.00 0.00 89 1017.3
20260905144025 75 305 0.9 1.7 0.00 0.00 0.00 87 1017.1
20260905143045 75 359 0.0 0.9 0.00 0.00 0.00 87 1016.5
20260905142026 75 358 0.0 1.7 0.00 0.00 0.00 87 1016.4
20260905141026 75 160 0.0 0.9 0.00 0.00 0.00 88 1016.6
20260905140100 74 4 0.9 1.7 0.00 0.00 0.00 88 1016.7
20260905135026 73 271 0.0 0.9 0.00 0.00 0.00 91 1016.5
20260905134026 71 342 0.9 1.7 0.00 0.00 0.00 93 1016.5
20260905133027 70 312 0.9 1.7 0.00 0.00 0.00 94 1016.6
20260905132027 69 334 0.9 1.7 0.00 0.00 0.00 95 1016.6
20260905131027 69 190 0.9 2.6 0.00 0.00 0.00 95 1016.5
20260905130027 69 28 0.0 1.7 0.00 0.00 0.00 96 1016.6
20260905125107 69 18 0.9 1.7 0.00 0.00 0.00 97 1016.6
20260905124028 68 346 0.0 1.7 0.00 0.00 0.00 97 1016.7
20260905123048 68 35 0.0 0.9 0.00 0.00 0.00 98 1016.6
20260905122028 68 54 0.0 1.7 0.00 0.00 0.00 98 1016.6
20260905121028 67 49 0.9 2.6 0.00 0.00 0.00 98 1016.6
20260905120048 67 31 0.9 1.7 0.00 0.00 0.00 98 1016.5
20260905115028 66 74 0.0 0.9 0.00 0.00 0.00 98 1016.4
20260905114028 66 68 0.0 0.9 0.00 0.00 0.00 98 1016.4
20260905113048 66 95 0.0 0.9 0.00 0.00 0.00 98 1016.5
20260905112049 66 177 0.9 0.9 0.00 0.00 0.00 98 1016.4
20260905111031 66 52 0.0 1.7 0.00 0.00 0.00 98 1016.4